FW0192 Weather Reports


time (UTC)temp
C
wind
direction
speed
KPH
gust
KPH
rain 1hr
cm
rain 24hr
cm
rain mn
cm
humidity
%
barometer
mb
20260906215041 32 51 6.4 19.3 0.00 0.00 0.00 34 1002.3
20260906214535 32 17 9.7 19.3 0.00 0.00 0.00 34 1002.4
20260906214035 32 38 8.0 14.5 0.00 0.00 0.00 35 1002.6
20260906213534 32 30 4.8 14.5 0.00 0.00 0.00 35 1002.7
20260906213035 32 34 4.8 17.7 0.00 0.00 0.00 36 1002.7
20260906212532 32 104 4.8 17.7 0.00 0.00 0.00 35 1002.9
20260906212032 32 66 3.2 14.5 0.00 0.00 0.00 35 1003.0
20260906211531 32 55 3.2 17.7 0.00 0.00 0.00 36 1003.1
20260906211029 32 74 3.2 11.3 0.00 0.00 0.00 37 1003.3
20260906210529 32 128 1.6 17.7 0.00 0.00 0.00 37 1003.4
20260906210029 32 100 8.0 22.5 0.00 0.00 0.00 37 1003.5
20260906205528 32 66 14.5 22.5 0.00 0.00 0.00 37 1003.5
20260906205031 32 109 1.6 11.3 0.00 0.00 0.00 37 1003.5
20260906204526 32 168 8.0 11.3 0.00 0.00 0.00 38 1003.5
20260906204024 32 55 6.4 14.5 0.00 0.00 0.00 38 1003.6
20260906203523 31 120 0.0 16.1 0.00 0.00 0.00 37 1003.8
20260906203028 31 69 6.4 16.1 0.00 0.00 0.00 38 1003.8
20260906202520 31 126 3.2 12.9 0.00 0.00 0.00 38 1003.7
20260906202021 31 17 6.4 14.5 0.00 0.00 0.00 38 1003.8
20260906201518 31 102 4.8 14.5 0.00 0.00 0.00 38 1003.9
20260906201021 31 42 3.2 8.0 0.00 0.00 0.00 36 1004.0
20260906200516 30 84 0.0 14.5 0.00 0.00 0.00 36 1004.1
20260906200015 30 104 6.4 17.7 0.00 0.00 0.00 38 1004.1
20260906195514 30 52 6.4 17.7 0.00 0.00 0.00 39 1004.1
20260906195015 30 86 8.0 17.7 0.00 0.00 0.00 40 1004.2
20260906194514 30 142 6.4 16.1 0.00 0.00 0.00 38 1004.2
20260906194013 30 96 8.0 16.1 0.00 0.00 0.00 40 1004.2
20260906193513 30 158 6.4 16.1 0.00 0.00 0.00 39 1004.2
20260906193012 30 88 6.4 20.9 0.00 0.00 0.00 41 1004.2
20260906192510 30 55 6.4 20.9 0.00 0.00 0.00 42 1004.3
20260906192009 30 336 9.7 14.5 0.00 0.00 0.00 40 1004.4
20260906191509 30 46 3.2 16.1 0.00 0.00 0.00 41 1004.7
20260906191005 30 360 6.4 17.7 0.00 0.00 0.00 42 1004.7
20260906190505 30 92 9.7 19.3 0.00 0.00 0.00 43 1004.7
20260906190004 29 59 8.0 17.7 0.00 0.00 0.00 46 1004.8
20260906185507 29 91 8.0 16.1 0.00 0.00 0.00 47 1004.9
20260906185002 28 101 6.4 22.5 0.00 0.00 0.00 47 1004.9
20260906184502 28 71 11.3 22.5 0.00 0.00 0.00 48 1005.0
20260906184100 28 86 6.4 19.3 0.00 0.00 0.00 49 1005.0
20260906183601 28 360 6.4 16.1 0.00 0.00 0.00 48 1005.2
20260906183059 28 22 6.4 16.1 0.00 0.00 0.00 50 1005.2
20260906182559 28 65 8.0 16.1 0.00 0.00 0.00 50 1005.4
20260906182100 27 37 6.4 12.9 0.00 0.00 0.00 50 1005.6
20260906181555 27 17 1.6 9.7 0.00 0.00 0.00 52 1005.6
20260906181053 27 29 4.8 9.7 0.00 0.00 0.00 53 1005.8
20260906180552 27 309 1.6 8.0 0.00 0.00 0.00 54 1005.8
20260906180109 27 311 1.6 8.0 0.00 0.00 0.00 55 1005.9
20260906175552 26 318 1.6 9.7 0.00 0.00 0.00 56 1006.0
20260906175048 26 360 4.8 9.7 0.00 0.00 0.00 56 1006.1
20260906174547 26 317 0.0 8.0 0.00 0.00 0.00 58 1006.2
20260906174046 25 319 1.6 8.0 0.00 0.00 0.00 59 1006.4
20260906173549 25 318 1.6 12.9 0.00 0.00 0.00 60 1006.5
20260906173043 25 317 3.2 12.9 0.00 0.00 0.00 60 1006.5
20260906172546 25 332 4.8 12.9 0.00 0.00 0.00 62 1006.5
20260906172042 25 294 6.4 16.1 0.00 0.00 0.00 62 1006.7
20260906171539 25 273 8.0 14.5 0.00 0.00 0.00 63 1006.7
20260906171038 24 265 6.4 14.5 0.00 0.00 0.00 64 1006.7
20260906170539 24 299 4.8 11.3 0.00 0.00 0.00 65 1006.7
20260906170035 23 360 4.8 12.9 0.00 0.00 0.00 66 1006.8
20260906165534 23 312 4.8 12.9 0.00 0.00 0.00 66 1006.8
20260906165035 23 360 8.0 12.9 0.00 0.00 0.00 67 1006.9
20260906164532 23 360 0.0 9.7 0.00 0.00 0.00 67 1007.0
20260906164031 23 326 1.6 8.0 0.00 0.00 0.00 68 1007.1
20260906163530 23 325 3.2 12.9 0.00 0.00 0.00 69 1007.0
20260906163029 22 360 3.2 12.9 0.00 0.00 0.00 71 1007.0
20260906162527 22 323 3.2 12.9 0.00 0.00 0.00 72 1007.1
20260906162025 22 324 6.4 12.9 0.00 0.00 0.00 73 1007.0
20260906161524 21 294 4.8 11.3 0.00 0.00 0.00 75 1007.0
20260906161022 21 293 3.2 12.9 0.00 0.00 0.00 77 1007.1
20260906160521 21 360 4.8 12.9 0.00 0.00 0.00 77 1007.1
20260906160019 21 288 4.8 14.5 0.00 0.00 0.00 78 1007.2
20260906155521 20 360 6.4 14.5 0.00 0.00 0.00 78 1007.2
20260906155018 20 360 6.4 16.1 0.00 0.00 0.00 79 1007.1
20260906154516 20 313 8.0 16.1 0.00 0.00 0.00 80 1007.1
20260906154015 20 306 8.0 16.1 0.00 0.00 0.00 80 1007.1
20260906153515 20 360 6.4 16.1 0.00 0.00 0.00 80 1007.1
20260906153017 20 294 9.7 16.1 0.00 0.00 0.00 81 1007.1
20260906152514 20 311 4.8 14.5 0.00 0.00 0.00 81 1007.2
20260906152013 20 360 4.8 14.5 0.00 0.00 0.00 82 1007.1
20260906151509 19 309 6.4 12.9 0.00 0.00 0.00 82 1007.1
20260906151009 19 360 6.4 14.5 0.00 0.00 0.00 82 1007.2
20260906150509 19 360 4.8 12.9 0.00 0.00 0.00 82 1007.3
20260906150007 19 360 6.4 14.5 0.00 0.00 0.00 83 1007.3
20260906145506 19 360 6.4 14.5 0.00 0.00 0.00 84 1007.3
20260906145006 18 360 8.0 14.5 0.00 0.00 0.00 85 1007.3
20260906144514 18 360 6.4 12.9 0.00 0.00 0.00 85 1007.2
20260906144004 18 327 8.0 14.5 0.00 0.00 0.00 87 1007.2
20260906143503 18 326 8.0 14.5 0.00 0.00 0.00 87 1007.3
20260906143003 18 360 6.4 14.5 0.00 0.00 0.00 88 1007.3
20260906142502 17 313 8.0 14.5 0.00 0.00 0.00 89 1007.2
20260906142100 17 312 8.0 14.5 0.00 0.00 0.00 90 1007.3
20260906141559 17 355 3.2 9.7 0.00 0.00 0.00 90 1007.4
20260906141058 17 355 4.8 9.7 0.00 0.00 0.00 91 1007.2
20260906140557 17 355 6.4 9.7 0.00 0.00 0.00 91 1007.3
20260906140105 17 355 4.8 9.7 0.00 0.00 0.00 92 1007.2
20260906135556 16 351 6.4 9.7 0.00 0.00 0.00 93 1007.2
20260906135055 16 351 6.4 9.7 0.00 0.00 0.00 93 1007.3
20260906134553 16 350 4.8 9.7 0.00 0.00 0.00 93 1007.1
20260906134052 16 350 4.8 8.0 0.00 0.00 0.00 94 1007.0
20260906133550 16 349 4.8 8.0 0.00 0.00 0.00 94 1007.1
20260906133056 16 360 3.2 9.7 0.00 0.00 0.00 94 1007.0
20260906132551 16 360 4.8 9.7 0.00 0.00 0.00 94 1007.0
20260906132049 15 360 4.8 9.7 0.00 0.00 0.00 94 1007.1
20260906131605 15 360 4.8 9.7 0.00 0.00 0.00 94 1006.9
20260906131044 15 360 4.8 9.7 0.00 0.00 0.00 94 1006.8
20260906130544 15 360 4.8 9.7 0.00 0.00 0.00 94 1006.7
20260906130045 15 28 4.8 8.0 0.00 0.00 0.00 94 1006.5
20260906125543 15 30 1.6 4.8 0.00 0.00 0.00 93 1006.6
20260906125043 15 30 1.6 4.8 0.00 0.00 0.00 93 1006.6
20260906124540 15 30 3.2 4.8 0.00 0.00 0.00 93 1006.6
20260906124041 15 30 0.0 4.8 0.00 0.00 0.00 93 1006.6
20260906123538 15 30 1.6 4.8 0.00 0.00 0.00 93 1006.7
20260906123038 15 30 1.6 3.2 0.00 0.00 0.00 93 1006.7
20260906122538 15 30 0.0 3.2 0.00 0.00 0.00 93 1006.6
20260906122037 15 30 1.6 4.8 0.00 0.00 0.00 93 1006.6
20260906121537 15 30 0.0 4.8 0.00 0.00 0.00 93 1006.6
20260906121036 15 30 1.6 4.8 0.00 0.00 0.00 92 1006.5
20260906120536 15 30 3.2 4.8 0.00 0.00 0.00 92 1006.5
20260906120036 15 30 1.6 6.4 0.00 0.00 0.00 92 1006.5
20260906115536 15 33 3.2 8.0 0.00 0.00 0.00 92 1006.6
20260906115035 15 30 3.2 8.0 0.00 0.00 0.00 92 1006.8
20260906114534 15 360 4.8 8.0 0.00 0.00 0.00 92 1006.7
20260906114033 15 58 3.2 6.4 0.00 0.00 0.00 92 1006.4
20260906113533 15 58 0.0 4.8 0.00 0.00 0.00 92 1006.5
20260906113033 15 58 1.6 6.4 0.00 0.00 0.00 91 1006.4
20260906112531 15 58 3.2 6.4 0.00 0.00 0.00 91 1006.2
20260906112030 15 59 3.2 6.4 0.00 0.00 0.00 91 1006.2
20260906111530 15 59 4.8 6.4 0.00 0.00 0.00 91 1006.2
20260906111029 16 63 3.2 4.8 0.00 0.00 0.00 91 1006.2
20260906110529 16 60 0.0 6.4 0.00 0.00 0.00 91 1006.1
20260906110028 16 61 3.2 6.4 0.00 0.00 0.00 91 1005.9
20260906105531 16 62 1.6 6.4 0.00 0.00 0.00 90 1005.8
20260906105028 16 61 1.6 6.4 0.00 0.00 0.00 90 1005.9
20260906104527 16 60 1.6 6.4 0.00 0.00 0.00 90 1006.0
20260906104027 16 360 3.2 6.4 0.00 0.00 0.00 89 1005.9
20260906103527 16 360 0.0 3.2 0.00 0.00 0.00 89 1006.0
20260906103026 16 360 0.0 0.0 0.00 0.00 0.00 89 1006.0
20260906102527 16 360 0.0 0.0 0.00 0.00 0.00 89 1006.0
20260906102024 16 360 0.0 0.0 0.00 0.00 0.00 89 1005.9
20260906101524 16 66 0.0 1.6 0.00 0.00 0.00 89 1006.0
20260906101024 16 66 0.0 1.6 0.00 0.00 0.00 89 1006.0
20260906100525 16 65 0.0 1.6 0.00 0.00 0.00 88 1006.0
20260906100023 16 67 0.0 3.2 0.00 0.00 0.00 88 1006.0
20260906095522 16 67 0.0 3.2 0.00 0.00 0.00 88 1006.0
20260906095022 16 65 0.0 3.2 0.00 0.00 0.00 88 1006.1
20260906094524 16 63 0.0 3.2 0.00 0.00 0.00 87 1005.9
20260906094020 16 63 0.0 4.8 0.00 0.00 0.00 87 1005.9
20260906093520 17 360 1.6 8.0 0.00 0.00 0.00 87 1006.0
20260906093029 17 360 3.2 9.7 0.00 0.00 0.00 87 1005.8
20260906092521 17 360 4.8 14.5 0.00 0.00 0.00 86 1005.8
20260906092017 17 360 8.0 17.7 0.00 0.00 0.00 86 1005.7
20260906091515 17 360 9.7 19.3 0.00 0.00 0.00 86 1005.7
20260906091015 17 360 11.3 20.9 0.00 0.00 0.00 85 1005.7
20260906090517 17 59 9.7 20.9 0.00 0.00 0.00 85 1005.6
20260906090012 17 50 8.0 14.5 0.00 0.00 0.00 84 1005.5
20260906085512 17 45 8.0 14.5 0.00 0.00 0.00 83 1005.5
20260906085010 17 360 3.2 16.1 0.00 0.00 0.00 82 1005.3
20260906084514 18 26 8.0 16.1 0.00 0.00 0.00 82 1005.2
20260906084009 18 27 8.0 12.9 0.00 0.00 0.00 80 1005.0
20260906083507 18 360 6.4 16.1 0.00 0.00 0.00 79 1005.0
20260906083007 18 360 9.7 16.1 0.00 0.00 0.00 79 1005.0
20260906082510 18 348 6.4 12.9 0.00 0.00 0.00 77 1005.0
20260906082005 18 348 6.4 14.5 0.00 0.00 0.00 76 1004.9
20260906081503 18 349 8.0 17.7 0.00 0.00 0.00 75 1004.9
20260906081003 18 349 11.3 17.7 0.00 0.00 0.00 74 1005.0
20260906080503 18 351 11.3 17.7 0.00 0.00 0.00 74 1004.9
20260906080001 18 9 8.0 14.5 0.00 0.00 0.00 72 1005.1
20260906075501 18 360 6.4 12.9 0.00 0.00 0.00 71 1005.3
20260906075100 18 15 3.2 12.9 0.00 0.00 0.00 68 1005.3
20260906074601 18 14 6.4 12.9 0.00 0.00 0.00 66 1005.4
20260906074058 18 11 3.2 12.9 0.00 0.00 0.00 63 1005.2
20260906073601 19 9 8.0 12.9 0.00 0.00 0.00 63 1005.3
20260906073057 19 351 3.2 9.7 0.00 0.00 0.00 64 1005.3
20260906072555 20 351 3.2 9.7 0.00 0.00 0.00 64 1005.5
20260906072053 20 351 6.4 9.7 0.00 0.00 0.00 64 1005.3
20260906071552 20 338 0.0 3.2 0.00 0.00 0.00 66 1005.4
20260906071053 20 338 0.0 3.2 0.00 0.00 0.00 66 1005.3
20260906070551 20 338 1.6 3.2 0.00 0.00 0.00 65 1005.2
20260906070050 20 338 0.0 1.6 0.00 0.00 0.00 65 1005.2
20260906065550 20 338 0.0 3.2 0.00 0.00 0.00 65 1005.1
20260906065049 20 338 0.0 6.4 0.00 0.00 0.00 64 1005.1
20260906064548 20 338 1.6 8.0 0.00 0.00 0.00 63 1005.0
20260906064047 21 338 3.2 12.9 0.00 0.00 0.00 61 1004.8
20260906063546 21 336 6.4 12.9 0.00 0.00 0.00 60 1004.9
20260906063046 21 327 8.0 12.9 0.00 0.00 0.00 59 1004.9
20260906062544 21 292 4.8 11.3 0.00 0.00 0.00 59 1004.9
20260906062045 21 288 4.8 11.3 0.00 0.00 0.00 58 1005.0
20260906061543 21 288 4.8 11.3 0.00 0.00 0.00 56 1005.0
20260906061046 21 286 8.0 11.3 0.00 0.00 0.00 56 1005.2
20260906060541 21 281 6.4 8.0 0.00 0.00 0.00 58 1005.2
20260906060050 21 281 4.8 6.4 0.00 0.00 0.00 58 1005.3
20260906055543 21 281 1.6 12.9 0.00 0.00 0.00 56 1005.3
20260906055041 21 280 6.4 12.9 0.00 0.00 0.00 56 1005.2
20260906054539 21 360 8.0 14.5 0.00 0.00 0.00 57 1005.3
20260906054039 21 360 9.7 14.5 0.00 0.00 0.00 57 1005.3
20260906053538 21 243 6.4 12.9 0.00 0.00 0.00 57 1005.4
20260906053039 21 230 4.8 8.0 0.00 0.00 0.00 57 1005.6
20260906052543 21 230 3.2 11.3 0.00 0.00 0.00 57 1005.5
20260906052038 21 229 4.8 14.5 0.00 0.00 0.00 57 1005.4
20260906051542 21 360 6.4 14.5 0.00 0.00 0.00 56 1005.5
20260906051036 22 360 6.4 11.3 0.00 0.00 0.00 56 1005.5
20260906050536 22 175 4.8 8.0 0.00 0.00 0.00 55 1005.2
20260906050036 22 59 0.0 3.2 0.00 0.00 0.00 55 1004.8
20260906045537 22 59 0.0 8.0 0.00 0.00 0.00 55 1004.6
20260906045035 22 59 3.2 8.0 0.00 0.00 0.00 54 1004.6
20260906044536 22 62 4.8 8.0 0.00 0.00 0.00 54 1004.6
20260906044035 22 46 1.6 8.0 0.00 0.00 0.00 54 1004.6
20260906043535 22 55 3.2 8.0 0.00 0.00 0.00 54 1004.5
20260906043036 22 51 3.2 9.7 0.00 0.00 0.00 54 1004.5
20260906042534 22 58 4.8 9.7 0.00 0.00 0.00 53 1004.5
20260906042034 22 60 4.8 8.0 0.00 0.00 0.00 52 1004.5
20260906041541 22 55 3.2 12.9 0.00 0.00 0.00 51 1004.5
20260906041033 22 360 4.8 14.5 0.00 0.00 0.00 50 1004.4
20260906040534 22 360 9.7 14.5 0.00 0.00 0.00 48 1004.3
20260906040038 23 23 9.7 14.5 0.00 0.00 0.00 46 1004.3
20260906035533 23 21 6.4 14.5 0.00 0.00 0.00 44 1004.2
20260906035033 23 360 6.4 14.5 0.00 0.00 0.00 42 1004.3
20260906034535 23 26 9.7 14.5 0.00 0.00 0.00 41 1004.4
20260906034035 24 34 6.4 17.7 0.00 0.00 0.00 39 1004.4
20260906033533 24 44 12.9 17.7 0.00 0.00 0.00 38 1004.2
20260906033034 25 17 6.4 17.7 0.00 0.00 0.00 38 1004.1
20260906032533 25 20 9.7 20.9 0.00 0.00 0.00 37 1004.1
20260906032032 25 13 9.7 20.9 0.00 0.00 0.00 37 1003.9
20260906031532 25 15 11.3 19.3 0.00 0.00 0.00 37 1003.8
20260906031033 25 15 12.9 19.3 0.00 0.00 0.00 37 1003.7
20260906030532 25 13 9.7 20.9 0.00 0.00 0.00 37 1003.7
20260906030032 25 360 12.9 24.1 0.00 0.00 0.00 37 1003.6
20260906025532 25 351 12.9 24.1 0.00 0.00 0.00 37 1003.6
20260906025032 25 360 16.1 22.5 0.00 0.00 0.00 36 1003.5
20260906024532 26 343 16.1 22.5 0.00 0.00 0.00 36 1003.5
20260906024031 26 342 16.1 20.9 0.00 0.00 0.00 36 1003.5
20260906023533 26 14 14.5 25.7 0.00 0.00 0.00 35 1003.5
20260906023035 26 348 16.1 25.7 0.00 0.00 0.00 35 1003.4
20260906022532 25 344 16.1 24.1 0.00 0.00 0.00 36 1003.4
20260906022040 25 360 16.1 22.5 0.00 0.00 0.00 36 1003.3
20260906021531 26 360 14.5 22.5 0.00 0.00 0.00 36 1003.2
20260906021030 26 316 16.1 27.4 0.00 0.00 0.00 35 1003.0
20260906020530 26 360 17.7 27.4 0.00 0.00 0.00 35 1002.9
20260906020031 26 360 19.3 25.7 0.00 0.00 0.00 34 1002.8
20260906015533 26 323 16.1 20.9 0.00 0.00 0.00 34 1002.9
20260906015030 26 360 14.5 20.9 0.00 0.00 0.00 34 1002.8
20260906014534 26 360 12.9 19.3 0.00 0.00 0.00 34 1002.7
20260906014034 27 360 14.5 19.3 0.00 0.00 0.00 33 1002.8
20260906013530 27 360 16.1 19.3 0.00 0.00 0.00 33 1002.7
20260906013030 27 360 12.9 19.3 0.00 0.00 0.00 33 1002.6
20260906012529 27 325 12.9 20.9 0.00 0.00 0.00 32 1002.6
20260906012033 27 360 14.5 20.9 0.00 0.00 0.00 31 1002.5
20260906011529 28 360 12.9 19.3 0.00 0.00 0.00 31 1002.5
20260906011028 28 327 8.0 12.9 0.00 0.00 0.00 31 1002.5
20260906010528 28 327 6.4 12.9 0.00 0.00 0.00 30 1002.4
20260906010028 29 360 6.4 14.5 0.00 0.00 0.00 29 1002.4
20260906005527 30 316 9.7 14.5 0.00 0.00 0.00 28 1002.4
20260906005032 30 360 6.4 12.9 0.00 0.00 0.00 28 1002.3
20260906004529 31 331 4.8 9.7 0.00 0.00 0.00 27 1002.2
20260906004027 31 331 6.4 9.7 0.00 0.00 0.00 27 1002.2
20260906003529 32 330 6.4 12.9 0.00 0.00 0.00 26 1002.2
20260906003028 32 331 6.4 14.5 0.00 0.00 0.00 25 1002.2
20260906002528 33 333 8.0 14.5 0.00 0.00 0.00 24 1002.2
20260906002027 33 350 4.8 12.9 0.00 0.00 0.00 26 1002.1
20260906001526 33 65 3.2 4.8 0.00 0.00 0.00 26 1002.0
20260906001033 33 63 0.0 4.8 0.00 0.00 0.00 25 1002.0
20260906000532 33 65 1.6 8.0 0.00 0.00 0.00 25 1002.0
20260906000027 33 65 4.8 12.9 0.00 0.00 0.00 25 1001.9
20260905235526 33 63 3.2 14.5 0.00 0.00 0.00 25 1001.9
20260905235026 33 72 6.4 14.5 0.00 0.00 0.00 24 1001.9
20260905234625 33 49 4.8 14.5 0.00 0.00 0.00 25 1001.9
20260905234031 33 84 8.0 14.5 0.00 0.00 0.00 24 1002.0
20260905233526 34 70 3.2 19.3 0.00 0.00 0.00 25 1001.9
20260905233025 34 42 6.4 19.3 0.00 0.00 0.00 24 1001.9
20260905232526 34 45 4.8 17.7 0.00 0.00 0.00 24 1001.9
20260905232025 34 59 9.7 20.9 0.00 0.00 0.00 24 1001.9
20260905231525 34 63 11.3 20.9 0.00 0.00 0.00 24 1001.8
20260905231024 34 12 11.3 20.9 0.00 0.00 0.00 24 1001.8
20260905230531 35 34 11.3 17.7 0.00 0.00 0.00 24 1001.8
20260905230024 35 47 9.7 17.7 0.00 0.00 0.00 24 1001.7
20260905225523 35 20 8.0 16.1 0.00 0.00 0.00 23 1001.6
20260905225024 35 257 6.4 14.5 0.00 0.00 0.00 21 1001.6
20260905224523 35 355 1.6 17.7 0.00 0.00 0.00 22 1001.6
20260905224022 35 349 8.0 19.3 0.00 0.00 0.00 21 1001.7
20260905223527 35 360 9.7 19.3 0.00 0.00 0.00 21 1001.7
20260905223023 35 34 6.4 19.3 0.00 0.00 0.00 21 1001.7
20260905222529 35 350 6.4 16.1 0.00 0.00 0.00 21 1001.7
20260905222026 35 40 8.0 16.1 0.00 0.00 0.00 20 1001.8
20260905221532 35 327 6.4 17.7 0.00 0.00 0.00 21 1001.8
20260905221021 35 309 8.0 19.3 0.00 0.00 0.00 21 1001.9
20260905220524 35 333 8.0 16.1 0.00 0.00 0.00 20 1001.9
20260905220018 34 276 8.0 20.9 0.00 0.00 0.00 21 1002.0
20260905215517 34 333 4.8 20.9 0.00 0.00 0.00 20 1002.1